St. Johns, AZ

5:16 PM MST on October 14, 2019 (GMT -0700)
Saint Johns Industrial

Weather History for KSJN - August, 2019

Change the Weather History Date:

Monday, August 5, 2019

  Actual Average (KLSB) Record (KLSB)
Temperature  
Mean Temperature 71 °F -  
Max Temperature 90 °F 93 °F 100 °F (2015)
Min Temperature 52 °F 63 °F 60 °F (2014)
Cooling Degree Days 6    
Growing Degree Days 21 (Base 50)    
Moisture  
Dew Point 49 °F    
Average Humidity 39    
Maximum Humidity 86    
Minimum Humidity 18    
Precipitation  
Precipitation 0.04 in - - ()
Sea Level Pressure  
Sea Level Pressure 29.95 in    
Wind  
Wind Speed 4 mph (NW)    
Max Wind Speed 15 mph    
Max Gust Speed 24 mph    
Visibility 10 miles    
Events Thunderstorm    
Averages and records for this station are not official NWS values.
T = Trace of Precipitation, MM = Missing Value Source: NWS Daily Summary

Daily Weather History Graph

Daily Weather History Graph

Search for Another Location

Airport or City:

Astronomy

Aug. 05, 2019 Rise Set
Actual Time 5:30 AM MST 7:15 PM MST
Civil Twilight 5:03 AM MST 7:43 PM MST
Nautical Twilight 4:30 AM MST 8:15 PM MST
Astronomical Twilight 3:55 AM MST 8:50 PM MST
Moon 10:38 AM MST (8/5) 10:43 PM MST (8/5)
Length of Visible Light 14h 39m
Length of Day
13h 45m
Waxing Crescent, 29% of the Moon is Illuminated
Aug 5
Waxing Crescent
Aug 7
First Quarter
Aug 15
Full
Aug 23
Last Quarter
Aug 30
New

Hourly Weather History & Observations

Time (MST) Temp. Heat Index Dew Point Humidity Pressure Visibility Wind Dir Wind Speed Gust Speed Precip Events Conditions
12:54 AM 69.1 °F - 54.0 °F 58% 29.93 in 10.0 mi Calm Calm - N/A   Clear
1:54 AM 64.9 °F - 54.0 °F 68% 29.94 in 10.0 mi Calm Calm - N/A   Clear
2:54 AM 66.0 °F - 55.0 °F 68% 29.93 in 10.0 mi Calm Calm - N/A   Clear
3:54 AM 64.0 °F - 55.0 °F 73% 29.94 in 10.0 mi Calm Calm - N/A   Clear
4:54 AM 63.0 °F - 55.0 °F 75% 29.95 in 10.0 mi Calm Calm - N/A   Clear
5:54 AM 60.1 °F - 54.0 °F 80% 29.98 in 10.0 mi Calm Calm - N/A   Clear
6:54 AM 66.9 °F - 54.0 °F 63% 29.98 in 10.0 mi Calm Calm - N/A   Clear
7:54 AM 73.0 °F - 55.0 °F 53% 29.98 in 10.0 mi East 3.5 mph - N/A   Clear
8:54 AM 77.0 °F - 54.0 °F 45% 29.98 in 10.0 mi Calm Calm - N/A   Clear
9:54 AM 82.0 °F 81.2 °F 53.1 °F 37% 29.97 in 10.0 mi North 5.8 mph - N/A   Clear
10:54 AM 86.0 °F - 52.0 °F 31% 29.96 in 10.0 mi Calm Calm - N/A   Clear
11:54 AM 89.1 °F - 48.9 °F 25% 29.93 in 10.0 mi NW 10.4 mph - N/A   Clear
12:54 PM 91.0 °F - 46.9 °F 22% 29.90 in 10.0 mi NNW 12.7 mph 21.9 mph N/A   Clear
1:54 PM 91.9 °F - 48.0 °F 22% 29.88 in 10.0 mi North - - N/A   Partly Cloudy
2:54 PM 93.0 °F - 43.0 °F 18% 29.84 in 10.0 mi Calm Calm - N/A   Partly Cloudy
3:54 PM 93.9 °F - 44.1 °F 18% 29.82 in 10.0 mi ENE 8.1 mph - N/A   Overcast
4:33 PM 93.0 °F - 46.9 °F 20% 30.14 in 10.0 mi NW 11.5 mph - N/A Thunderstorm Scattered Clouds
4:54 PM 91.0 °F - 44.1 °F 20% 29.83 in 10.0 mi NNW 13.8 mph 19.6 mph N/A Thunderstorm Clear
5:06 PM 90.0 °F - 44.1 °F 20% 30.14 in 10.0 mi NW 13.8 mph 24.2 mph N/A   Clear
5:13 PM 90.0 °F - 43.0 °F 19% 30.13 in 10.0 mi NW 11.5 mph - N/A Thunderstorm Clear
5:28 PM 90.0 °F - 43.0 °F 19% 30.13 in 9.0 mi NNW 10.4 mph - N/A   Clear
5:54 PM 86.0 °F - 46.9 °F 26% 29.85 in 10.0 mi NW 15.0 mph - N/A   Clear
6:54 PM 84.0 °F - 45.0 °F 25% 29.84 in 10.0 mi West 10.4 mph - N/A   Clear
7:54 PM 82.9 °F - 45.0 °F 26% 29.84 in 10.0 mi NW 9.2 mph - N/A   Clear
8:54 PM 79.0 °F - 48.9 °F 35% 29.86 in 10.0 mi West 6.9 mph - N/A   Overcast
9:54 PM 79.0 °F - 48.9 °F 35% 29.85 in 10.0 mi WSW 9.2 mph - N/A   Clear
10:54 PM 78.1 °F - 46.9 °F 33% 29.85 in 10.0 mi WSW 11.5 mph - N/A   Clear
11:54 PM 75.9 °F - 46.0 °F 35% 29.86 in 10.0 mi West 6.9 mph - N/A   Partly Cloudy